Notices

What's New in latest Release from April 7th, 2021:

- Updated Glossary, including Speed of Maximum Gust, and Total Hourly Precipitation

- Updated national and regional climate services offices contacts and prices information

- Addition of station inventory lists for 1981-2010, 1971-2000, and 1961-1990 Normals.

If you haven't already, please take our survey and provide feedback about our website: https://eccc.sondage-survey.ca/f/LanguageSelection.aspx?s=442ca660-fcf1-47c0-95a9-59707d6fd709

Hourly Data Report for December 07, 2020

MUSKOKA
ONTARIO
Current Station Operator: NAVCAN

44°58'29.000" N
79°18'12.000" W
281.90 m
6115529
71532
YQA

Download Data

Hourly Data (December 2020)
Hourly Data Report for December 7, 2020
TIME
LST
Temp Definition
°C
Dew Point Definition
°C
Rel Hum Definition
%
Precip. Amount Definition
mm

Wind Dir Definition
10's deg

Wind Spd Definition
km/h
Visibility Definition
km
Stn Press Definition
kPa
Hmdx Definition


Wind Chill Definition


Weather Definition


00:00 -8.5 -9.9 90 0.0 31 8 16.1 98.03   -13 LegendNANA
01:00 -9.3 -10.4 92 0.0 32 9 16.1 97.99   -14 LegendNANA
02:00 -9.6 -11.0 90 0.0 32 8 16.1 97.98   -14 LegendNANA
03:00 -10.2 -11.2 92 0.0 LegendMM 4 16.1 97.98   -13 LegendNANA
04:00 -10.2 -11.4 91 0.0 34 9 16.1 97.96   -15 LegendNANA
05:00 -10.3 -11.6 90 0.0 34 9 16.1 97.90   -15 LegendNANA
06:00 -11.2 -12.5 90 0.0 33 11 16.1 97.92   -17 LegendNANA
07:00 -11.1 -12.5 90 0.0 31 11 16.1 97.93   -17 LegendNANA
08:00 -11.4 -12.7 90 0.0 34 11 16.1 97.97   -17 LegendNANA
09:00 -10.1 -11.6 89 0.0 35 15 16.1 97.96   -17 Snow
10:00 -8.9 -10.7 87 0.0 35 13 3.2 97.95   -15 Snow
11:00 -7.2 -10.1 80 0.0 33 21 16.1 97.94   -15 LegendNANA
12:00 -5.2 -9.5 72 0.0 34 13 16.1 97.85   -10 LegendNANA
13:00 -3.9 -9.2 67 0.0 34 17 16.1 97.79   -10 LegendNANA
14:00 -3.0 -9.1 63 0.0 34 15 16.1 97.78   -8 LegendNANA
15:00 -3.2 -9.1 64 0.0 33 15 16.1 97.77   -8 LegendNANA
16:00 -4.0 -10.0 63 0.0 33 21 16.1 97.79   -10 LegendNANA
17:00 -4.8 -10.0 67 0.0 34 13 16.1 97.84   -10 LegendNANA
18:00 -6.0 -10.1 73 0.0 34 15 16.1 97.88   -12 LegendNANA
19:00 -7.0 -10.2 78 0.0 34 11 16.1 97.94   -12 LegendNANA
20:00 -7.6 -10.5 80 0.0 33 15 16.1 97.96   -14 LegendNANA
21:00 -7.9 -10.6 81 0.0 34 13 16.1 97.94   -14 LegendNANA
22:00 -8.7 -11.1 83 0.0 33 9 16.1 97.96   -13 LegendNANA
23:00 -10.0 -12.1 85 0.0 32 11 16.1 97.97   -16 LegendNANA

Notes on Data Quality.

Legend

  • E = Estimated
  • M = Missing
  • NA = Not Available*
  • [empty] = Indicates an unobserved value
Date modified: